Regional Weather Roundup
Issued by NWS

Home | Current Version | Previous Version | Graphics & Text | Print | Product List | Glossary On
Versions: 1 2 3 4 5 6 7 8 9 10 11 12 13 14 15 16 17 18 19 20 21 22 23 24 25 26 27 28 29 30 31 32 33 34 35 36 37 38 39 40 41 42 43 44 45 46 47
000
ASUS45 KPSR 240110
RWRAZ

ARIZONA REGIONAL HOURLY WEATHER ROUNDUP
NATIONAL WEATHER SERVICE TUCSON AZ
600 PM MST FRI JUN 23 2017

NOTE: FAIR INDICATES FEW OR NO CLOUDS BELOW 12,000 FEET WITH NO
SIGNIFICANT WEATHER AND/OR OBSTRUCTIONS TO VISIBILITY.

AZZ001>003-036-240200-
NORTHWEST ARIZONA

CITY           SKY/WX    TMP DP  RH WIND       PRES   REMARKS
BULLHEAD CITY  SUNNY    117  34   6 W5        29.61F HX 108
KINGMAN        SUNNY    105  32   8 SW14      29.89F
$$

AZZ004>008-015-016-018-240200-
NORTH CENTRAL ARIZONA

CITY           SKY/WX    TMP DP  RH WIND       PRES   REMARKS
GRAND CANYON   SUNNY     90  22   8 N8        30.18S
PRESCOTT       FAIR      96  28   9 SW22      30.04S
FLAGSTAFF      PTSUNNY   86  21   9 SW10      30.20S
PAYSON         PTCLDY    95  43  16 SW13G26   30.07S
PAGE           MOSUNNY  101  35  10 NW13      29.92S
$$

AZZ009>014-017-240200-
NORTHEAST ARIZONA

CITY           SKY/WX    TMP DP  RH WIND       PRES   REMARKS
WINSLOW        MOSUNNY   99  23   6 NW7       29.99S
SAINT JOHNS    SUNNY     96  13   5 N6        30.05S
WINDOW ROCK    MOSUNNY   92  25   9 W9        30.15S
SHOW LOW       MOSUNNY   86  27  11 NW7       30.14S
$$

AZZ023-240200-
GREATER PHOENIX AREA

CITY           SKY/WX    TMP DP  RH WIND       PRES   REMARKS
PHOENIX        MOSUNNY  111  41   9 W20       29.67F HX 105
BUCKEYE        CLEAR    109  45  11 SW10G17   29.68F HX 104
GLENDALE       MOSUNNY  111  43  10 S14G23    29.68F HX 106
LUKE AFB       SUNNY    112  43  10 SW14      29.66F HX 106
DEER VALLEY    SUNNY    109  46  12 SW14      29.69F HX 105
SCOTTSDALE     SUNNY    109  44  11 SW10G17   29.72F HX 104
MESA-FALCON    MOSUNNY  109  50  14 W12       29.71F HX 106
MESA-GATEWAY   MOSUNNY  109  46  12 NW17      29.71  HX 105
CHANDLER       SUNNY    111  41   9 SW9       29.69F HX 105
$$

AZZ027-028-240200-
SOUTHWEST MARICOPA COUNTY AND PINAL COUNTY

CITY           SKY/WX    TMP DP  RH WIND       PRES   REMARKS
CASA GRANDE    MOSUNNY  107  45  12 W17       29.71F HX 102
$$

AZZ503-504-507>509-240200-
SOUTHEAST ARIZONA

CITY           SKY/WX    TMP DP  RH WIND       PRES   REMARKS
TUCSON         FAIR     107  34   8 N14G21    29.83S HX 100
DAVIS-MONTHAN  MOSUNNY  105  29   7 N20G25    29.81F
RYAN FIELD     CLEAR    108  36   8 NW14      29.81F HX 101
NOGALES        MOSUNNY   99  45  15 NW10G17   29.93F
SIERRA VISTA   SUNNY     97  31  10 NW18      30.01S
DOUGLAS        FAIR     102  37  10 NW13G24   29.90F
SAFFORD        SUNNY    107  34   8 W18       29.78S HX 100
$$

AZZ020-021-025-026-031-240200-
SOUTHWEST ARIZONA

CITY           SKY/WX    TMP DP  RH WIND       PRES   REMARKS
YUMA           SUNNY    109  49  13 S13       29.67F HX 105
$$

CAZ031-033-041-043-047-048-061-240200-
SOUTHERN CALIFORNIA

CITY           SKY/WX    TMP DP  RH WIND       PRES   REMARKS
DOWNTOWN L.A.  PTSUNNY   69  61  75 W8G17     29.89R
L.A. AIRPORT   CLOUDY    65  61  87 W16       29.90S
SAN DIEGO      CLOUDY    70  62  76 W10       29.92S
BURBANK        SUNNY     80  59  48 S12       29.87S
ONTARIO        MOSUNNY   85  59  41 W12       29.87S
RIVERSIDE      SUNNY     85  62  46 W12       29.87R
PALM SPRINGS   SUNNY    110  58  18 SE9       29.69S HX 110
EL CENTRO NAS  MOSUNNY  108  56  18 S7        29.65F HX 107
IMPERIAL       PTSUNNY  109  63  22 S12       29.63F HX 112
BLYTHE         MOSUNNY  112  49  12 S15       29.64F HX 108
NEEDLES        PTSUNNY  119  16   3 SW9       29.64F HX 107
$$

NVZ020-UTZ003-240200-
SOUTHERN NEVADA-UTAH

CITY           SKY/WX    TMP DP  RH WIND       PRES   REMARKS
LAS VEGAS      MOSUNNY  112  17   3 N3        29.75F HX 103
SALT LAKE CITY SUNNY     84  29  13 VRB7        N/A
$$

NMZ009-TXZ055-240200-
NEW MEXICO-WEST TEXAS

CITY           SKY/WX    TMP DP  RH WIND       PRES   REMARKS
ALBUQUERQUE    MOSUNNY   90  51  26 E28G33    30.02R
EL PASO        MOSUNNY  105  29   7 NE3       29.83R
$$


........................KEY........................
SKY/WX - SKY CONDITION/WEATHER
TMP    - TEMPERATURE IN FAHRENHEIT
DP     - DEWPOINT IN FAHRENHEIT
RH     - RELATIVE HUMIDITY IN PERCENT
WIND   - DIRECTION AND SPEED IN MILES PER HOUR (MPH)
VRB    - VARIABLE WIND DIRECTION
PRES   - MEAN SEA LEVEL PRESSURE IN INCHES OF MERCURY
         F - FALLING PRESSURE   R - RISING PRESSURE
         S - STEADY PRESSURE
VSB    - VISIBILITY IN MILES
HX     - HEAT INDEX IN FAHRENHEIT
WCI    - WIND CHILL INDEX IN FAHRENHEIT
TC     - TEMPERATURE IN CELSIUS WHICH IS ALSO KNOWN AS
         TEMPERATURE IN CENTIGRADE
AFB    - AIR FORCE BASE
         LUKE AFB IS LUKE AIR FORCE BASE
         DAVIS-MONTHAN IS DAVIS-MONTHAN AIR FORCE BASE
NAS    - NAVAL AIR STATION
         EL CENTRO NAS IS EL CENTRO NAVAL AIR STATION
N/A    - NOT AVAILABLE





USA.gov is the U.S. government's official web portal to all federal, state and local government web resources and services.